Orbital Elements at Epoch 2459200.5 (2020-Dec-17.0) TDB
Reference: JPL 25 (heliocentric ecliptic J2000)
Element | Value | Uncertainty (1-sigma) | Units |
e | .191163990971609 | 3.7406e-08 | |
a | 2.555043868184063 | 1.0584e-08 | au |
q | 2.06661148523446 | 9.3646e-08 | au |
i | 8.082649610751167 | 4.5968e-06 | deg |
node | 166.06647711 | 3.3451e-05 | deg |
peri | 237.3218085951472 | 3.6225e-05 | deg |
M | 32.63779060559725 | 1.5229e-05 | deg |
tp | 2459065.257179492508 (2020-Aug-03.75717949) | 6.2967e-05 | TDB |
period | 1491.749731807752 4.08 | 9.269e-06 2.538e-08 | d yr |
n | .2413273435375383 | 1.4995e-09 | deg/d |
Q | 3.043476251133666 | 1.2607e-08 | au |
|
| | Orbit Determination Parameters
Additional Information
|